Probability
3 3 0 0 0 3 3 3 3 3 3 3 6 6 6 6 0 3 0 0 0 0 0 0 0 0 0 0 0 0 0 0 0 0 0 0 0 3
6 6 3 3 0 3 3 3 3 3 3 3 0 0 3 3 3 6 6 0 0 0 0 0 0 0 0 0 0 0 0 0 0 0 0 0 0 0
10 6 10 10 6 3 3 3 3 3 3 3 3 3 6 3 3 3 3 3 6 0 0 0 0 0 0 0 0 0 0 0 0 0 0 0 0 0
13 13 13 10 10 6 3 3 3 3 3 3 6 3 6 6 6 3 3 3 3 0 0 0 0 0 0 0 0 0 0 0 0 0 0 0 0 0
13 13 13 13 13 13 10 6 3 3 3 3 6 6 10 10 10 6 3 6 3 3 0 0 0 0 0 0 0 0 0 0 0 0 0 0 0 0
10 10 13 13 13 13 13 13 6 6 6 10 10 10 10 10 10 10 10 6 6 6 3 0 0 0 0 0 0 0 0 0 0 0 0 0 0 0
13 13 16 13 13 13 13 13 13 13 6 6 6 10 10 10 10 10 10 10 6 6 6 6 6 6 6 0 0 0 0 0 0 0 0 0 0 0
13 13 13 13 6 6 6 6 13 13 13 10 13 13 13 13 10 6 10 10 10 6 6 6 6 6 6 3 3 0 0 0 0 0 0 0 0 0
13 13 13 13 13 16 10 0 0 0 3 13 13 13 13 10 10 10 10 10 10 13 3 10 10 6 6 6 0 0 0 0 0 0 0 0 0 0
3 6 10 13 10 10 16 16 16 10 0 0 10 13 13 10 10 13 13 13 13 10 6 10 10 6 6 6 3 0 0 0 0 0 0 0 0 0
3 3 6 6 6 3 6 13 16 13 3 0 0 3 0 0 3 10 13 13 6 6 6 10 10 6 6 6 3 0 0 0 0 0 0 0 0 0
3 3 3 3 3 0 3 6 10 10 10 10 3 0 0 0 0 0 6 6 6 6 6 6 6 6 6 3 0 0 0 0 0 0 0 0 0 0
3 3 3 0 0 0 0 3 3 3 6 6 6 6 0 0 3 0 0 6 6 6 6 6 6 10 6 3 3 0 0 0 0 0 0 0 0 0
0 0 0 0 0 0 0 0 0 0 3 3 3 0 0 0 0 6 3 3 3 6 10 3 6 10 3 3 0 0 0 0 0 0 0 0 0 0
0 0 0 0 0 3 0 0 3 3 3 3 0 0 0 0 0 3 3 3 3 3 3 3 3 3 0 0 3 0 0 0 0 0 0 0 0 0
0 0 0 0 0 0 0 0 0 0 0 0 0 0 0 0 0 0 0 0 0 0 3 3 3 3 0 0 0 0 0 0 0 0 0 0 0 0
3 3 3 0 0 3 3 0 0 0 0 0 0 0 0 0 0 0 0 0 0 0 0 0 0 0 0 0 0 0 0 0 0 0 0 3 0 0
3 3 3 3 0 0 0 0 0 0 0 0 0 0 0 0 0 0 0 0 0 0 0 0 0 0 0 0 0 0 0 0 0 0 0 0 0 0
3 3 0 0 0 0 0 0 0 0 0 0 0 0 0 0 0 0 0 0 0 0 0 0 0 0 0 0 0 0 0 0 0 0 0 0 0 0
0 0 0 0 0 0 0 0 0 0 0 0 0 0 0 0 0 0 0 0 0 0 0 0 0 0 0 0 0 0 0 0 0 0 0 0 0 0
0 0 0 0 0 0 0 0 0 0 0 0 0 0 0 0 0 0 0 0 0 0 0 0 0 0 0 0 0 0 0 0 0 0 0 0 0 0
0 0 0 0 0 0 0 0 0 0 0 0 0 0 0 0 0 0 0 0 0 0 0 0 0 0 0 0 0 0 0 0 0 0 0 0 0 0
0 0 0 0 0 0 0 0 0 0 0 0 0 0 0 0 0 0 0 0 0 0 0 0 0 0 0 0 0 0 0 0 0 0 0 0 0 0
Height
5828 5826 5825 5824 5823 5822 5821 5820 5820 5819 5818 5817 5817 5816 5815 5815 5814 5814 5814 5814 5814 5815 5815 5815 5816 5816 5817 5818 5819 5820 5821 5822 5823 5825 5826 5827 5828 5829
5822 5820 5819 5818 5816 5815 5814 5813 5812 5811 5811 5810 5809 5808 5808 5807 5807 5806 5806 5806 5806 5807 5807 5808 5808 5809 5810 5810 5811 5813 5814 5815 5816 5818 5819 5820 5821 5822
5815 5814 5812 5811 5809 5808 5807 5806 5804 5803 5803 5802 5801 5800 5799 5799 5798 5797 5797 5797 5797 5798 5798 5799 5800 5801 5802 5802 5804 5805 5806 5807 5808 5810 5811 5812 5814 5815
5809 5807 5806 5804 5803 5801 5799 5798 5796 5795 5794 5793 5792 5791 5790 5790 5789 5788 5788 5788 5788 5788 5789 5790 5791 5792 5793 5794 5795 5796 5797 5798 5800 5801 5803 5804 5806 5807
5802 5800 5798 5797 5795 5793 5791 5790 5788 5786 5785 5784 5783 5781 5781 5780 5779 5779 5779 5778 5778 5779 5779 5780 5781 5782 5783 5784 5785 5787 5788 5789 5791 5792 5794 5795 5797 5798
5796 5793 5791 5789 5787 5785 5783 5781 5779 5778 5776 5774 5773 5772 5771 5769 5769 5769 5769 5769 5769 5769 5769 5770 5771 5772 5773 5774 5775 5777 5778 5779 5781 5783 5784 5786 5788 5789
5789 5786 5784 5782 5780 5777 5775 5773 5771 5769 5767 5765 5764 5762 5761 5760 5759 5759 5759 5759 5758 5758 5759 5759 5760 5761 5762 5763 5765 5766 5767 5769 5771 5773 5774 5776 5778 5780
5781 5779 5776 5774 5771 5769 5766 5764 5762 5760 5758 5756 5755 5753 5752 5750 5750 5749 5749 5749 5749 5749 5748 5749 5749 5750 5751 5752 5754 5755 5757 5759 5761 5762 5764 5766 5768 5770
5773 5771 5768 5766 5763 5760 5758 5755 5753 5750 5749 5747 5746 5744 5742 5741 5740 5740 5739 5739 5739 5738 5738 5739 5739 5739 5740 5741 5743 5745 5746 5748 5750 5751 5753 5756 5758 5760
5765 5762 5760 5757 5754 5752 5749 5747 5744 5742 5739 5738 5736 5735 5733 5731 5730 5730 5729 5729 5729 5728 5728 5729 5729 5729 5730 5731 5732 5734 5736 5738 5740 5742 5743 5745 5748 5750
5757 5754 5751 5749 5746 5743 5741 5738 5735 5733 5730 5728 5727 5725 5723 5722 5721 5721 5720 5720 5720 5719 5719 5719 5719 5719 5720 5721 5723 5724 5726 5728 5730 5732 5733 5735 5737 5739
5748 5746 5743 5740 5737 5734 5732 5729 5727 5724 5721 5719 5717 5715 5714 5712 5711 5711 5711 5710 5710 5710 5709 5709 5709 5709 5711 5712 5713 5714 5715 5718 5720 5722 5724 5725 5727 5729
5740 5738 5735 5732 5729 5726 5723 5721 5718 5715 5712 5710 5707 5706 5704 5703 5702 5701 5701 5701 5700 5700 5700 5699 5700 5700 5701 5703 5703 5704 5706 5708 5710 5712 5714 5715 5717 5719
5732 5729 5726 5724 5721 5718 5715 5712 5709 5706 5703 5700 5698 5696 5695 5694 5692 5692 5691 5690 5690 5690 5690 5690 5690 5690 5691 5693 5694 5695 5696 5698 5700 5702 5703 5705 5707 5709
5724 5721 5718 5716 5713 5710 5707 5703 5700 5697 5694 5692 5690 5688 5686 5685 5683 5681 5681 5680 5680 5680 5680 5680 5681 5681 5682 5683 5684 5685 5687 5688 5690 5692 5693 5695 5697 5699
5716 5713 5710 5707 5704 5701 5698 5695 5691 5688 5686 5683 5681 5679 5678 5676 5674 5673 5672 5671 5671 5671 5671 5671 5672 5673 5673 5674 5675 5676 5677 5679 5680 5681 5683 5685 5687 5689
5707 5705 5702 5699 5696 5693 5690 5686 5683 5680 5677 5675 5672 5671 5669 5667 5666 5664 5663 5663 5662 5662 5662 5663 5663 5664 5664 5665 5666 5668 5668 5669 5670 5672 5673 5675 5677 5679
5699 5696 5693 5690 5687 5684 5681 5678 5674 5671 5669 5666 5664 5662 5660 5658 5657 5656 5655 5654 5654 5653 5654 5654 5655 5655 5656 5657 5658 5659 5660 5660 5661 5662 5664 5666 5668 5670
5692 5689 5686 5682 5679 5676 5673 5670 5667 5664 5661 5658 5656 5654 5652 5651 5649 5648 5647 5646 5646 5646 5646 5646 5646 5647 5648 5649 5650 5650 5651 5652 5653 5654 5655 5657 5659 5660
5684 5681 5678 5675 5671 5668 5665 5662 5659 5656 5653 5651 5649 5647 5645 5643 5642 5641 5640 5639 5638 5638 5638 5638 5638 5639 5639 5641 5642 5643 5643 5644 5645 5646 5647 5648 5649 5651
5677 5674 5670 5667 5664 5661 5658 5655 5652 5649 5646 5644 5642 5640 5638 5637 5635 5634 5632 5632 5631 5631 5631 5631 5630 5631 5631 5633 5634 5634 5635 5636 5636 5637 5638 5639 5641 5643
5670 5667 5663 5660 5657 5654 5651 5648 5645 5642 5640 5637 5635 5633 5631 5629 5628 5627 5626 5625 5624 5623 5623 5623 5623 5623 5624 5625 5625 5626 5626 5627 5628 5629 5630 5632 5634 5636
5664 5660 5657 5653 5650 5647 5644 5641 5638 5636 5633 5631 5629 5627 5625 5623 5621 5620 5619 5618 5617 5617 5616 5616 5616 5616 5616 5616 5617 5618 5619 5620 5621 5622 5624 5625 5627 5629
Wind_Speed
19 20 20 20 20 21 21 22 22 22 22 23 25 26 26 26 26 27 27 27 28 28 28 28 28 28 28 28 28 27 26 25 25 25 25 25 24 23
21 21 22 22 22 22 23 23 24 24 24 25 26 27 28 29 29 29 29 30 30 30 30 30 29 30 30 29 29 28 28 28 27 27 27 27 27 26
23 22 22 23 23 23 24 24 25 25 26 26 27 28 29 30 31 31 32 31 31 31 31 31 31 30 30 30 31 30 30 29 29 29 29 30 29 28
24 23 24 23 23 24 25 26 26 27 27 28 29 29 30 31 31 31 32 32 31 32 32 32 32 32 31 31 31 30 31 31 31 31 31 31 31 30
24 24 24 24 24 25 26 27 28 28 29 29 30 30 30 31 31 31 32 33 33 33 33 32 33 33 33 32 30 31 31 31 32 32 32 33 33 32
25 25 24 24 25 26 27 28 29 29 30 30 31 31 31 31 31 32 32 33 34 35 34 34 34 34 34 33 32 32 32 32 33 33 33 33 33 33
26 26 26 25 26 27 28 29 29 30 30 31 31 31 32 32 31 31 31 32 33 34 34 34 34 34 34 34 34 33 33 34 34 34 35 34 34 34
27 27 26 27 27 28 29 29 30 30 30 30 30 30 30 30 31 31 31 31 31 32 32 33 34 34 34 33 33 33 34 34 35 36 36 35 35 35
28 28 28 28 29 28 28 29 30 30 30 30 30 29 30 31 31 31 31 31 30 31 31 32 32 33 34 34 34 34 34 34 35 35 36 36 36 35
29 28 28 29 29 29 29 29 30 31 31 31 31 30 31 31 31 30 29 29 30 30 30 30 31 32 32 31 32 33 34 34 35 35 35 35 35 35
29 29 29 30 30 30 30 30 31 31 31 31 31 31 31 30 29 29 29 29 29 29 30 30 30 30 30 30 31 31 32 33 34 34 34 35 35 35
29 30 30 30 30 30 30 30 31 31 31 31 31 31 30 29 29 29 29 29 30 30 30 30 30 30 29 28 30 31 31 32 32 32 33 33 34 34
29 29 30 30 30 30 30 30 30 31 30 31 31 31 31 30 30 30 29 29 29 29 29 28 28 29 28 28 29 30 31 32 33 33 33 34 34 34
28 29 29 29 30 30 30 30 31 31 30 30 29 30 30 30 30 31 30 30 29 28 28 27 27 27 27 28 29 30 31 32 32 33 33 34 34 33
28 28 29 29 30 30 31 31 31 31 30 30 30 29 28 29 29 30 30 29 28 27 26 26 26 26 26 26 27 29 30 31 32 32 32 33 33 33
29 29 29 29 30 30 31 31 31 31 30 29 29 29 29 29 29 28 27 27 26 26 25 25 26 25 25 26 26 27 29 30 30 31 31 31 32 33
28 29 30 30 30 30 30 30 30 30 30 29 28 28 28 29 27 26 25 25 25 25 25 25 25 25 25 25 25 26 27 27 28 30 31 31 31 31
28 29 29 29 29 30 30 29 29 29 29 29 28 28 28 27 26 25 24 24 24 24 24 25 25 25 25 25 25 26 26 27 27 28 28 28 29 29
28 29 29 29 28 28 29 28 28 28 27 27 27 26 25 24 24 23 23 23 23 23 23 24 24 24 25 25 24 25 25 26 26 26 27 27 27 29
28 28 28 28 28 27 27 27 26 26 25 25 25 25 24 23 23 23 22 22 21 21 21 22 23 23 23 24 24 25 25 24 24 25 26 26 26 27
28 28 27 27 27 27 27 26 25 25 24 23 23 23 23 23 22 22 21 21 21 21 21 21 22 22 23 23 23 24 25 24 24 24 24 24 25 25
27 27 27 26 26 26 26 26 25 24 24 23 23 23 23 22 21 21 20 21 21 21 22 21 21 22 22 22 22 22 23 22 22 22 21 21 22 23
26 26 26 26 26 25 25 25 24 23 23 23 23 23 22 21 21 21 21 21 21 21 21 22 22 22 21 21 21 21 21 21 20 20 19 19 19 20
Wind_Direction
289 289 287 285 283 283 282 281 280 278 276 275 274 274 273 273 272 271 269 268 266 263 261 260 259 258 256 259 258 255 253 252 252 252 253 256 257 255
289 289 287 286 284 281 280 280 280 279 278 277 275 274 274 273 272 272 271 268 268 267 265 264 262 259 259 259 257 256 255 253 252 252 253 254 254 255
292 291 289 288 287 285 284 282 281 280 279 279 277 276 275 274 273 272 272 270 269 268 266 265 264 262 261 260 259 257 257 255 252 252 254 253 253 253
294 292 290 288 288 288 287 286 284 283 281 280 279 277 275 274 273 271 270 270 269 268 267 264 263 262 262 261 260 260 259 255 251 251 253 253 253 253
296 294 292 289 289 288 287 286 286 285 283 282 281 279 278 276 274 272 271 269 268 268 267 265 263 262 262 261 260 261 259 256 254 251 251 251 252 252
299 296 294 292 291 290 289 288 287 286 285 284 283 281 279 277 275 274 272 270 269 269 268 264 263 263 262 261 261 260 258 256 255 253 251 250 250 251
298 296 294 293 293 293 292 291 290 289 288 286 285 283 281 280 277 276 273 272 271 270 268 266 265 264 262 261 261 260 258 256 255 253 252 251 250 250
296 295 295 294 293 292 291 291 291 291 290 288 287 284 282 280 278 277 275 273 272 270 269 268 266 264 262 261 259 259 258 257 256 253 252 251 250 251
294 294 294 293 293 293 293 292 292 292 291 290 288 287 284 281 279 278 276 274 272 271 270 268 266 264 262 261 259 259 259 257 255 253 252 252 251 252
296 296 294 293 293 294 294 294 294 292 291 289 287 286 285 283 281 279 277 275 273 273 272 269 268 264 262 259 257 258 258 258 258 256 255 253 253 254
296 296 295 295 294 294 294 295 295 293 291 290 288 287 285 282 279 278 277 276 275 273 272 269 268 266 262 259 258 257 257 257 257 257 256 256 255 255
296 296 295 297 295 295 295 296 295 294 291 290 288 286 284 281 279 278 277 276 276 274 272 269 267 265 262 260 259 257 257 256 256 256 256 257 256 255
296 296 296 296 297 297 297 298 298 296 292 290 287 286 284 282 279 278 277 275 275 273 271 269 267 265 262 260 259 257 256 256 256 256 257 257 256 255
296 297 297 298 299 299 299 299 300 299 296 292 290 288 286 284 281 278 278 276 275 274 270 268 267 265 262 261 260 258 256 256 257 258 257 256 256 256
298 297 297 298 299 300 300 300 300 299 298 295 293 291 289 287 287 283 279 277 275 273 271 269 268 268 264 262 261 259 257 257 257 257 256 255 254 254
299 298 298 299 299 300 300 300 300 299 298 295 292 292 292 289 287 285 281 277 276 272 271 269 268 267 264 262 262 261 260 258 257 257 256 254 253 253
300 300 300 300 299 299 300 299 298 297 296 295 292 291 291 289 286 284 281 278 277 272 269 268 267 267 264 263 263 262 260 259 259 259 257 254 253 252
300 301 301 300 300 299 300 300 298 297 296 294 293 292 291 289 287 284 281 279 277 274 270 267 267 264 263 261 262 262 263 262 260 258 256 253 250 249
304 303 302 301 301 301 302 302 300 299 296 295 295 294 292 290 289 285 281 279 277 274 269 268 268 264 262 260 259 260 262 260 258 256 254 252 250 250
305 305 303 302 302 302 303 303 302 300 299 297 295 294 292 290 289 286 283 279 277 274 269 269 268 266 263 260 259 259 260 260 259 257 254 251 250 248
308 308 307 305 304 303 304 303 303 301 298 297 296 295 292 290 288 286 283 281 279 275 271 269 268 266 264 261 260 258 258 258 257 255 253 250 249 246
311 311 310 309 307 305 304 304 303 302 299 297 297 296 293 290 287 285 283 282 281 277 273 271 269 268 266 261 259 259 259 257 254 251 251 252 249 244
312 312 312 311 309 307 306 305 304 303 302 302 301 299 295 290 286 284 282 283 282 279 276 274 271 270 268 263 258 257 257 254 250 249 251 251 250 245